Temp
16 15 15 15 14 15 14 13 14 12 11 12 11 11 12 11 12 11 9 9 10 10 9 10 10 9 9 9 9 9 9 9 9 9 9 9 9 9 9 9 9 9 9 8 8 8 8 8 8
15 16 16 14 15 15 15 15 14 13 12 11 11 13 13 12 12 11 10 9 10 10 10 10 9 10 10 10 9 9 9 9 9 9 9 9 9 9 9 9 9 9 9 9 9 8 8 8 8
16 16 16 15 16 16 15 15 14 12 11 11 10 11 12 12 11 12 11 11 10 10 10 10 10 10 10 10 9 9 9 9 9 9 9 9 9 9 9 9 9 9 9 9 9 9 9 9 9
17 17 16 17 17 16 16 15 15 14 12 11 12 12 11 11 12 11 11 11 11 10 10 10 10 10 10 10 10 9 9 9 9 9 9 9 9 9 9 9 9 9 9 9 9 9 9 9 9
15 16 16 17 17 16 16 15 14 13 12 12 13 11 12 11 12 11 11 11 11 11 10 10 10 10 10 10 10 10 10 9 9 9 9 9 9 9 9 9 9 9 9 9 9 9 9 9 9
16 15 15 17 17 17 16 15 15 14 12 11 13 13 12 11 11 11 11 11 11 11 11 11 10 10 10 10 10 10 10 10 10 9 9 9 9 9 9 9 9 9 9 9 9 9 9 9 9
13 15 14 17 17 17 16 16 16 14 13 12 13 14 11 11 12 12 11 11 11 11 11 10 10 10 11 10 10 10 10 10 10 9 9 9 10 10 10 10 9 9 9 9 9 9 9 9 9
15 14 15 16 16 16 16 16 16 15 13 13 12 11 11 10 11 11 11 11 11 11 11 11 11 10 10 10 10 10 10 10 9 9 9 10 10 10 10 10 9 9 9 10 10 10 9 9 9
15 16 15 14 15 16 16 15 14 15 14 12 12 13 10 10 10 10 11 11 11 11 11 11 11 11 10 10 10 10 9 9 9 9 9 9 10 10 9 10 10 9 9 10 10 9 10 9 9
15 17 17 16 15 16 15 15 14 14 13 13 13 12 10 9 10 10 11 12 12 11 11 11 11 11 11 11 10 10 10 9 9 9 9 9 10 10 10 10 9 9 9 10 10 9 10 10 9
17 17 17 17 16 16 15 15 15 14 14 14 15 13 10 10 9 10 12 12 11 11 11 11 11 12 11 11 11 10 10 10 10 9 9 9 10 10 10 10 10 9 10 10 10 10 9 9 9
18 19 18 16 16 15 16 16 16 15 13 14 14 14 12 9 10 10 9 11 9 12 11 12 12 11 12 10 10 11 10 10 9 10 9 10 9 9 9 10 10 10 10 9 10 9 9 9 9
19 19 18 16 15 16 16 15 15 13 13 13 14 14 13 11 10 10 10 11 11 11 8 11 10 11 11 12 12 12 12 11 12 10 10 10 10 10 9 9 9 9 9 9 8 9 9 9 9
19 19 18 17 17 16 17 14 14 13 12 12 13 13 13 12 11 10 11 12 12 11 12 12 12 12 11 12 11 11 10 10 10 11 10 10 10 10 10 9 9 9 9 8 9 9 9 9 9
19 19 18 18 16 16 16 13 12 12 12 12 12 12 11 11 11 11 12 13 12 11 13 12 12 12 11 11 10 10 10 10 9 10 10 10 9 9 10 9 9 8 8 8 8 8 8 8 8
19 19 18 17 17 15 16 13 12 12 12 11 11 11 10 10 10 11 11 13 13 13 12 13 12 11 11 11 10 10 10 9 10 10 10 10 10 10 9 9 9 8 8 8 8 8 8 8 8
19 19 18 17 17 17 17 13 13 12 12 12 11 11 11 10 10 10 11 12 13 13 13 12 12 11 11 11 10 10 10 10 9 9 10 9 10 9 9 9 8 8 8 8 8 8 8 8 8
19 19 18 18 17 17 17 15 13 13 13 13 12 12 11 11 11 11 11 11 12 13 12 12 11 12 11 10 10 10 10 9 9 9 9 9 9 8 9 9 8 8 8 8 8 9 9 9 9
19 19 19 17 18 18 16 15 14 14 14 13 13 13 12 11 11 11 11 12 11 12 12 11 12 12 11 11 11 11 10 10 10 9 9 9 9 9 9 9 8 9 9 9 9 9 9 9 8
20 19 19 19 17 18 17 16 15 15 14 15 13 13 12 12 12 12 12 13 13 13 13 12 12 12 11 10 10 10 10 10 10 10 10 10 10 10 10 10 9 9 9 9 9 9 9 8 8
20 20 19 19 18 18 17 16 15 16 15 15 15 13 13 12 13 13 14 14 15 14 13 12 12 11 10 10 10 10 11 11 11 11 11 11 11 10 10 11 10 10 9 9 9 9 8 8 7
20 20 20 20 18 17 17 15 15 16 16 15 15 14 14 12 12 12 13 13 14 13 12 12 11 11 11 10 10 10 11 11 11 11 11 10 10 11 10 10 10 10 9 9 9 8 8 7 8
20 20 20 20 20 20 18 19 19 16 16 16 15 15 14 13 13 13 13 13 13 12 12 12 11 11 11 11 10 10 10 11 11 11 11 10 10 9 9 9 9 9 9 8 8 8 7 7 7
20 20 20 20 20 18 20 19 16 16 16 16 16 15 15 14 14 13 13 12 12 12 12 12 12 11 11 11 10 10 11 11 11 11 11 11 11 11 10 10 10 9 8 8 7 7 6 6 6
19 19 19 17 16 15 20 20 19 18 17 17 16 16 15 15 15 14 14 13 12 12 12 12 12 11 11 11 11 11 10 11 11 10 10 10 10 10 10 10 8 8 7 7 7 7 6 6 6
19 19 19 15 14 18 20 19 20 19 18 18 17 17 16 15 15 14 14 13 13 12 13 12 12 12 11 11 11 10 10 10 11 10 10 10 10 10 10 9 8 8 7 7 7 6 6 6 5
19 19 19 19 20 18 20 20 20 19 19 17 17 17 16 15 14 13 14 13 13 13 13 12 12 12 12 11 11 10 10 10 11 10 9 10 10 10 9 9 8 7 7 6 6 6 6 5 5
19 20 19 19 16 15 20 19 19 19 18 18 17 17 16 15 14 13 14 13 13 13 13 13 12 11 11 12 11 11 10 10 10 10 10 9 9 9 9 8 8 7 6 6 6 6 6 5 5
19 19 19 19 19 15 15 17 19 19 18 18 18 17 17 16 15 15 14 13 13 13 12 13 12 11 11 11 12 11 10 10 10 10 9 9 9 9 9 8 7 7 6 6 6 5 5 5 4
19 19 19 19 19 19 19 19 19 19 18 17 17 17 17 16 16 15 15 14 14 14 12 12 12 12 11 11 12 11 10 9 9 9 9 9 9 8 7 7 6 6 6 6 5 5 5 4 4
Height
3175 3173 3173 3171 3174 3172 3172 3174 3170 3173 3172 3175 3177 3174 3179 3177 3179 3183 3183 3187 3190 3192 3193 3195 3197 3199 3200 3202 3204 3206 3208 3209 3210 3211 3213 3213 3215 3217 3219 3219 3220 3221 3222 3222 3223 3223 3222 3222 3223
3174 3172 3173 3171 3175 3170 3176 3177 3176 3174 3173 3175 3177 3177 3179 3179 3182 3182 3186 3190 3193 3195 3197 3199 3200 3202 3203 3205 3207 3208 3210 3211 3214 3214 3216 3217 3218 3220 3222 3222 3223 3223 3223 3223 3224 3224 3223 3224 3224
3176 3175 3175 3171 3173 3172 3178 3180 3181 3177 3175 3176 3178 3180 3181 3182 3186 3185 3189 3192 3195 3198 3200 3202 3204 3205 3207 3208 3210 3211 3213 3215 3216 3217 3218 3219 3221 3222 3224 3224 3223 3224 3224 3224 3225 3225 3225 3224 3224
3174 3177 3174 3175 3174 3176 3180 3182 3183 3183 3183 3183 3180 3182 3186 3189 3189 3191 3194 3196 3199 3200 3203 3204 3207 3209 3209 3211 3212 3214 3215 3217 3218 3219 3221 3221 3224 3225 3226 3225 3225 3225 3225 3225 3226 3225 3225 3225 3224
3175 3174 3172 3174 3176 3179 3180 3182 3184 3185 3184 3183 3184 3184 3186 3193 3194 3196 3198 3200 3202 3203 3205 3207 3209 3210 3212 3213 3214 3216 3217 3218 3220 3222 3223 3225 3225 3226 3226 3226 3226 3226 3226 3225 3225 3225 3225 3224 3224
3174 3176 3174 3176 3179 3183 3184 3184 3186 3186 3187 3186 3186 3185 3190 3195 3196 3198 3200 3202 3204 3206 3207 3210 3211 3212 3213 3215 3216 3218 3220 3221 3222 3224 3225 3225 3225 3226 3225 3226 3226 3226 3226 3225 3225 3225 3225 3224 3224
3183 3181 3180 3182 3182 3184 3187 3185 3187 3187 3189 3190 3189 3187 3192 3196 3197 3199 3202 3204 3207 3208 3210 3211 3213 3214 3215 3217 3218 3219 3221 3222 3224 3225 3225 3226 3226 3226 3227 3226 3226 3226 3225 3225 3225 3225 3225 3225 3223
3185 3188 3188 3186 3186 3188 3188 3187 3187 3189 3191 3192 3193 3192 3192 3196 3198 3200 3203 3205 3208 3210 3211 3212 3213 3215 3216 3218 3219 3220 3222 3223 3225 3225 3226 3226 3225 3228 3227 3225 3224 3224 3225 3224 3224 3225 3224 3224 3223
3188 3185 3191 3187 3187 3186 3187 3189 3191 3190 3192 3194 3195 3196 3196 3196 3199 3203 3204 3205 3208 3210 3211 3212 3213 3214 3216 3217 3219 3221 3222 3224 3225 3225 3226 3226 3227 3227 3225 3227 3224 3225 3224 3225 3223 3224 3223 3224 3223
3186 3182 3181 3187 3187 3183 3186 3189 3191 3193 3194 3195 3197 3199 3199 3200 3202 3204 3205 3207 3208 3210 3212 3213 3214 3215 3216 3218 3219 3221 3222 3224 3225 3226 3225 3225 3226 3227 3228 3226 3225 3225 3225 3225 3223 3223 3222 3222 3222
3186 3183 3185 3187 3191 3189 3186 3190 3195 3196 3197 3195 3197 3198 3200 3202 3205 3205 3206 3208 3209 3210 3212 3214 3215 3216 3217 3219 3220 3221 3222 3223 3224 3225 3225 3224 3224 3225 3225 3226 3224 3224 3225 3224 3223 3222 3221 3221 3221
3189 3185 3183 3183 3186 3190 3190 3191 3190 3194 3196 3197 3199 3201 3202 3204 3204 3207 3207 3207 3210 3210 3213 3213 3214 3215 3216 3217 3218 3219 3220 3222 3223 3224 3224 3225 3224 3224 3224 3224 3223 3224 3225 3224 3222 3221 3220 3220 3219
3186 3187 3187 3185 3186 3187 3188 3189 3190 3193 3196 3198 3200 3201 3203 3204 3207 3207 3208 3209 3211 3211 3212 3213 3214 3215 3217 3217 3218 3219 3219 3220 3221 3222 3223 3223 3223 3223 3224 3224 3224 3224 3222 3222 3222 3220 3219 3218 3218
3186 3187 3186 3189 3188 3189 3190 3193 3195 3196 3196 3198 3199 3201 3203 3204 3206 3208 3208 3209 3211 3211 3211 3213 3215 3217 3217 3218 3219 3219 3219 3219 3219 3220 3220 3221 3221 3222 3223 3222 3222 3221 3220 3219 3218 3218 3217 3216 3214
3185 3187 3188 3188 3186 3187 3187 3195 3196 3196 3197 3199 3200 3201 3203 3204 3206 3207 3208 3209 3211 3212 3211 3213 3214 3216 3216 3217 3218 3218 3218 3218 3218 3218 3218 3218 3218 3218 3219 3219 3218 3217 3217 3216 3215 3214 3213 3213 3211
3183 3185 3186 3186 3186 3189 3187 3193 3196 3196 3197 3198 3201 3202 3203 3205 3205 3206 3207 3208 3209 3210 3210 3212 3214 3215 3215 3216 3217 3217 3217 3217 3217 3217 3217 3216 3216 3216 3216 3216 3215 3214 3213 3212 3211 3210 3209 3208 3207
3178 3181 3182 3187 3188 3188 3188 3191 3192 3195 3197 3199 3200 3202 3203 3204 3205 3205 3206 3206 3207 3208 3209 3210 3212 3213 3214 3214 3215 3216 3216 3216 3216 3215 3214 3213 3213 3213 3212 3213 3211 3211 3210 3209 3207 3206 3203 3202 3201
3174 3178 3179 3182 3187 3188 3188 3190 3192 3196 3198 3199 3200 3202 3203 3203 3203 3204 3204 3204 3205 3206 3207 3209 3210 3211 3211 3212 3213 3214 3214 3214 3213 3213 3213 3211 3211 3209 3208 3208 3207 3206 3205 3203 3201 3199 3198 3195 3193
3171 3174 3178 3186 3184 3186 3187 3189 3192 3197 3200 3201 3201 3200 3200 3201 3200 3202 3203 3203 3203 3204 3206 3208 3208 3208 3210 3212 3211 3212 3211 3210 3210 3208 3207 3207 3205 3205 3204 3203 3203 3201 3198 3197 3194 3192 3191 3190 3187
3167 3171 3171 3174 3179 3180 3185 3189 3193 3194 3199 3198 3199 3198 3197 3199 3198 3200 3201 3202 3204 3205 3206 3206 3207 3208 3209 3210 3211 3211 3209 3208 3206 3204 3203 3202 3201 3200 3199 3200 3198 3196 3194 3192 3189 3188 3185 3185 3183
3164 3168 3169 3169 3175 3179 3183 3189 3187 3182 3189 3193 3193 3196 3198 3196 3196 3199 3200 3200 3202 3204 3205 3206 3207 3208 3210 3211 3211 3209 3206 3203 3201 3199 3198 3198 3197 3197 3195 3194 3193 3192 3190 3188 3185 3183 3182 3180 3180
3161 3164 3165 3169 3166 3179 3174 3179 3181 3180 3183 3187 3188 3191 3193 3194 3196 3197 3199 3199 3200 3203 3204 3206 3207 3208 3209 3210 3208 3206 3204 3201 3199 3197 3195 3195 3193 3193 3192 3191 3191 3189 3187 3184 3182 3180 3178 3175 3175
3160 3162 3164 3165 3168 3167 3167 3169 3168 3177 3179 3184 3188 3188 3190 3190 3191 3194 3197 3199 3199 3201 3203 3205 3206 3207 3206 3205 3205 3204 3202 3201 3198 3195 3193 3192 3191 3190 3189 3189 3188 3185 3183 3181 3178 3175 3174 3172 3170
3158 3159 3161 3162 3162 3160 3161 3164 3164 3167 3169 3175 3175 3184 3185 3185 3187 3189 3193 3196 3197 3199 3201 3203 3204 3205 3205 3204 3204 3204 3202 3200 3196 3193 3191 3190 3188 3187 3186 3183 3181 3179 3178 3176 3174 3172 3170 3168 3166
3153 3156 3158 3160 3160 3157 3157 3159 3158 3160 3165 3167 3170 3175 3179 3179 3181 3184 3185 3188 3191 3192 3199 3200 3201 3202 3203 3203 3203 3203 3201 3199 3196 3192 3189 3187 3185 3182 3181 3179 3177 3175 3174 3173 3171 3169 3167 3165 3163
3148 3152 3153 3160 3159 3154 3151 3152 3150 3153 3157 3163 3168 3172 3176 3177 3176 3180 3184 3185 3184 3188 3190 3197 3198 3199 3199 3200 3200 3198 3197 3195 3194 3191 3188 3185 3183 3179 3178 3176 3173 3172 3170 3169 3167 3165 3162 3160 3159
3144 3145 3151 3151 3151 3151 3146 3142 3147 3149 3154 3159 3164 3167 3169 3173 3175 3178 3181 3182 3183 3184 3187 3190 3195 3195 3195 3196 3195 3195 3193 3191 3189 3187 3185 3182 3180 3177 3174 3172 3170 3169 3167 3165 3162 3161 3158 3156 3155
3138 3144 3148 3147 3151 3153 3145 3143 3143 3145 3148 3156 3160 3162 3164 3166 3170 3170 3176 3179 3181 3181 3182 3186 3189 3190 3191 3192 3191 3191 3191 3189 3187 3185 3182 3180 3176 3173 3170 3167 3166 3164 3163 3160 3158 3157 3155 3152 3150
3133 3135 3140 3144 3145 3146 3147 3146 3144 3145 3149 3152 3156 3157 3160 3165 3170 3169 3174 3178 3176 3174 3177 3181 3182 3184 3184 3185 3186 3185 3185 3185 3184 3183 3180 3177 3173 3170 3167 3164 3162 3160 3158 3155 3152 3150 3148 3146 3144
3128 3130 3135 3136 3139 3139 3140 3141 3139 3145 3147 3150 3153 3157 3161 3165 3168 3168 3166 3165 3168 3168 3171 3175 3176 3177 3178 3178 3180 3179 3179 3178 3178 3177 3173 3169 3166 3163 3162 3159 3157 3154 3152 3149 3146 3144 3142 3140 3137
Wind_Speed
8 10 7 11 6 15 23 27 26 21 25 24 22 19 20 20 14 22 26 25 25 26 25 25 26 25 25 24 21 21 22 22 20 18 18 19 19 18 16 15 14 13 12 10 9 8 9 9 9
9 6 10 5 11 27 21 23 24 25 25 27 20 11 23 15 9 29 26 25 26 26 25 23 24 23 21 19 18 19 19 18 16 16 16 17 17 16 15 14 13 12 11 11 10 9 9 9 10
10 3 4 8 24 29 21 21 27 25 26 23 18 15 21 27 25 28 25 26 26 25 23 22 21 19 17 17 17 16 15 14 14 14 15 15 15 14 12 11 11 10 10 9 8 9 9 9 10
9 10 9 20 23 24 24 21 16 12 13 18 15 26 23 20 24 24 25 25 24 23 21 20 18 17 16 15 15 14 13 12 11 12 12 13 12 10 10 9 9 8 7 7 7 8 8 8 9
8 11 10 24 27 21 21 21 18 23 19 8 9 22 26 22 22 23 23 22 21 21 20 18 16 16 16 15 15 14 13 12 11 10 10 9 8 7 6 6 7 7 7 7 8 9 9 9 9
10 11 8 25 27 26 23 20 11 12 10 15 12 23 26 21 20 21 21 20 19 17 18 16 15 15 15 14 13 12 11 10 9 9 9 8 6 4 3 4 5 5 6 7 8 9 9 9 10
22 15 9 12 27 25 24 11 5 16 15 13 13 23 25 22 19 20 20 19 17 16 16 15 14 14 13 13 12 11 11 10 9 8 7 6 3 2 5 5 6 6 5 7 7 7 9 9 9
14 7 15 12 9 24 20 9 11 10 10 13 9 15 20 21 16 16 20 17 17 15 15 14 13 13 12 11 10 10 9 9 8 7 6 5 2 6 6 6 5 5 8 8 9 10 10 10 9
8 6 2 19 20 19 23 19 18 9 13 8 8 4 17 20 16 10 16 14 16 14 13 13 11 11 10 10 8 8 7 7 7 6 4 3 1 1 5 7 2 5 8 9 10 11 11 10 9
10 4 14 14 29 23 25 23 21 15 15 9 5 16 18 13 8 6 14 13 14 13 12 10 8 8 8 7 6 5 4 4 5 5 5 4 3 3 4 8 5 6 11 10 10 11 10 12 6
17 15 26 20 19 13 19 22 12 19 12 10 5 18 24 17 10 8 9 9 13 11 11 10 9 8 6 5 2 4 4 5 5 6 6 5 5 6 5 6 6 8 8 6 6 10 11 12 11
12 14 16 24 23 16 12 1 9 14 17 11 5 10 22 22 13 11 10 10 10 10 15 11 8 7 7 7 8 9 7 8 8 8 10 6 7 6 10 8 9 9 10 9 9 10 11 12 15
16 17 13 22 21 12 10 17 21 28 17 13 11 11 14 19 22 12 10 8 10 10 6 9 8 6 6 7 3 5 5 6 7 6 11 9 10 9 9 9 9 10 10 8 6 8 10 12 13
8 11 15 16 12 10 8 16 21 22 19 13 13 12 12 12 14 20 15 12 11 15 11 8 9 7 5 3 3 6 6 7 6 8 10 12 11 10 9 8 10 11 11 11 13 14 16 17 18
10 17 19 11 19 13 5 16 12 17 15 16 14 12 12 9 10 9 10 9 9 12 9 6 7 6 5 4 4 6 8 8 10 12 10 11 13 13 11 12 13 15 15 16 17 18 17 16 17
15 16 17 24 21 19 4 21 13 13 13 13 10 8 9 10 11 11 11 11 10 11 9 8 8 8 6 5 5 5 7 10 12 13 14 14 14 12 11 14 16 17 19 20 22 22 23 21 23
17 20 22 23 20 14 7 21 13 16 15 9 12 14 13 9 12 11 9 12 12 12 11 10 7 5 8 7 7 8 8 10 13 13 15 16 16 13 15 15 17 19 19 21 22 23 28 31 31
23 22 23 23 20 14 12 15 19 18 16 12 16 15 14 14 12 9 8 10 13 12 10 9 9 10 7 5 7 8 9 10 13 15 14 16 16 20 20 19 20 24 26 28 29 28 27 27 28
26 27 22 14 16 16 16 21 20 19 17 17 22 21 19 15 9 7 6 5 10 9 9 9 10 4 2 4 7 9 11 14 16 17 18 19 20 21 24 24 25 28 29 29 28 26 24 22 23
26 23 28 22 29 15 21 23 20 28 22 16 22 22 19 15 13 13 6 2 5 8 5 3 3 3 5 7 7 10 11 11 15 19 20 20 20 20 19 17 18 21 21 21 23 23 21 17 19
26 22 23 26 27 18 21 27 32 14 28 27 19 23 18 20 16 11 9 4 3 5 6 6 6 7 7 7 11 16 16 14 15 17 17 16 14 18 19 19 18 19 19 21 22 21 20 20 15
25 18 15 9 30 26 31 18 35 24 27 32 24 26 19 26 24 18 14 12 8 8 8 8 6 6 4 5 13 20 23 21 16 16 16 14 16 16 18 18 18 19 20 22 21 21 19 20 18
23 19 13 22 18 26 33 16 19 24 30 31 27 27 24 27 28 19 18 16 13 12 10 8 7 5 2 8 14 20 24 25 21 16 11 13 16 16 17 16 16 18 18 20 20 19 16 17 17
18 17 17 19 23 12 15 23 16 36 35 31 30 31 30 28 29 26 18 18 18 14 12 10 6 3 2 7 10 16 22 27 26 21 17 15 17 19 19 22 23 22 19 17 18 17 16 13 15
19 20 12 4 7 10 28 29 23 30 28 23 33 34 32 32 30 29 25 24 24 24 15 11 9 6 4 4 7 13 19 25 28 27 22 20 21 23 24 25 23 21 19 16 17 17 16 16 17
26 27 10 7 4 17 27 23 20 23 24 16 22 28 24 38 35 32 28 26 27 29 28 19 13 10 10 10 10 13 18 24 28 30 29 25 23 25 26 24 22 20 18 18 16 15 16 17 16
31 32 22 25 23 16 12 26 24 16 18 22 26 22 23 40 37 33 30 30 32 34 30 29 24 23 19 16 14 14 16 22 28 31 32 32 26 24 24 23 22 20 19 19 19 17 17 19 20
30 31 23 25 2 6 12 11 5 26 27 25 22 21 21 25 40 36 30 30 33 38 36 33 31 29 28 27 19 17 15 18 24 28 33 34 29 25 23 22 21 21 21 21 21 20 19 21 21
23 30 23 26 24 7 2 4 3 25 20 16 14 13 10 27 30 45 28 30 42 37 43 36 35 32 32 28 26 22 19 18 21 26 29 33 29 24 21 21 21 20 20 21 23 22 21 22 22
34 26 27 20 11 8 11 7 13 18 19 19 18 17 18 19 17 23 29 25 31 34 44 34 34 31 29 27 31 26 22 20 22 26 30 34 31 26 22 22 20 20 20 22 23 23 23 24 24
Wind_Direction
22 340 31 62 55 89 82 99 69 98 92 112 118 113 134 130 122 117 117 117 118 119 120 121 119 118 117 117 116 118 121 118 109 104 105 107 106 105 102 99 96 92 89 85 74 63 59 51 37
334 61 126 122 89 82 79 76 82 97 95 99 112 110 145 137 141 123 127 126 124 121 121 118 117 117 115 114 115 118 119 115 111 106 108 108 103 100 97 96 91 87 82 72 62 54 48 46 39
305 162 80 89 100 94 92 102 96 94 91 92 100 115 124 124 131 127 135 130 130 126 121 120 118 117 117 113 115 119 124 120 111 107 109 108 104 103 105 100 95 86 73 66 58 49 33 35 36
81 132 147 111 101 103 103 112 108 114 104 111 117 106 111 128 127 126 127 133 134 131 127 122 121 122 121 120 121 124 127 122 112 110 117 116 114 110 102 88 78 69 63 47 30 26 17 17 20
22 45 101 105 114 103 102 104 102 111 127 123 136 117 117 129 125 125 127 132 136 134 131 129 129 129 130 130 129 128 131 128 123 114 118 123 117 106 85 71 57 46 35 21 15 8 3 0 6
22 46 72 98 111 103 105 114 115 126 121 132 118 123 122 127 128 125 128 133 135 136 133 133 133 136 135 129 125 124 124 122 121 122 125 122 118 109 89 53 40 26 12 7 359 355 351 351 356
34 84 45 95 113 110 112 113 99 100 86 118 107 117 125 139 143 139 136 138 137 139 140 142 141 138 141 141 138 135 134 137 134 134 134 131 136 90 33 18 0 344 349 343 337 341 337 341 344
346 9 33 94 117 116 123 108 102 81 98 72 38 114 123 138 145 141 145 144 146 145 145 147 147 147 144 145 148 149 155 150 146 149 150 155 165 53 2 330 311 343 334 331 336 342 333 333 337
305 332 270 124 143 117 115 114 115 101 71 58 32 83 125 129 130 135 140 145 146 152 154 153 149 148 150 153 157 161 163 162 164 172 176 199 166 169 345 1 337 327 327 338 343 341 332 343 338
263 40 140 127 134 132 138 136 132 120 130 167 208 140 143 155 151 159 154 155 149 161 156 156 155 161 165 170 169 173 184 187 193 199 214 242 282 346 346 332 336 342 328 344 341 335 338 349 9
209 219 114 127 141 149 128 157 144 139 177 225 171 150 154 171 179 178 164 159 172 171 169 166 170 174 160 173 189 204 205 223 220 230 236 250 280 287 305 331 324 322 315 339 328 333 348 348 343
119 88 96 124 137 114 110 104 167 149 157 215 185 160 155 166 189 159 178 193 172 188 185 179 185 172 181 166 221 221 218 227 235 243 250 257 263 265 289 309 319 318 338 339 349 348 348 349 346
122 119 102 110 116 101 74 71 135 151 163 199 183 171 166 167 176 189 215 217 184 185 191 198 208 192 212 243 274 323 279 262 297 283 272 278 273 278 294 306 304 314 323 323 318 333 333 332 332
136 152 133 124 120 99 73 90 144 155 169 200 184 177 175 173 175 181 211 216 177 196 205 200 207 222 204 279 296 303 316 313 309 315 297 292 275 284 282 282 288 294 298 301 306 308 309 304 308
169 133 133 140 136 138 114 118 141 160 189 180 183 183 176 188 201 201 223 221 215 208 224 202 187 202 212 245 276 284 294 299 296 301 298 290 291 285 284 287 293 294 292 294 298 303 303 303 298
172 166 160 161 143 141 134 147 168 176 177 170 174 170 176 204 223 237 239 230 216 218 222 217 191 202 215 229 253 267 274 280 282 292 299 296 291 280 280 286 291 290 295 298 299 298 296 296 296
180 191 177 166 191 185 216 154 169 171 171 169 165 178 199 227 246 237 249 245 233 229 213 229 220 201 211 221 242 254 265 274 284 291 301 297 302 297 294 290 288 288 292 295 293 297 299 298 298
191 210 170 183 187 220 200 183 164 170 179 176 174 200 227 236 243 245 279 248 219 216 210 213 220 215 224 250 272 268 280 275 280 286 286 288 301 291 296 294 295 294 296 296 297 300 300 300 303
210 194 184 217 195 228 177 179 168 177 186 185 195 211 220 234 248 259 260 230 235 232 223 234 234 229 217 264 286 295 293 292 293 289 287 284 282 281 286 291 290 291 296 299 299 298 300 302 296
224 208 210 213 199 216 181 186 164 180 195 237 210 216 203 202 227 247 243 187 160 154 149 127 110 121 90 63 29 4 343 306 286 283 279 275 278 286 288 287 286 289 297 302 301 307 308 305 299
239 244 221 188 182 201 184 180 184 205 204 212 238 229 208 213 223 228 212 206 150 141 138 132 130 117 103 67 27 5 351 327 309 297 293 287 291 297 301 308 311 308 308 305 305 306 305 306 299
240 246 239 223 170 187 187 189 207 216 190 205 217 219 218 217 227 239 217 208 199 175 171 167 156 141 114 44 23 12 6 357 341 326 312 307 290 298 300 301 306 305 306 303 302 302 301 297 298
231 234 250 243 254 218 206 208 230 198 188 205 217 220 220 225 232 241 235 219 216 196 188 188 180 167 47 18 13 6 5 0 354 344 325 289 295 291 293 306 296 303 304 303 303 303 300 295 296
233 234 232 251 257 265 246 216 211 191 197 199 206 216 225 227 236 243 260 248 250 227 196 203 188 166 31 12 0 354 357 359 1 353 341 321 307 308 317 322 322 320 316 311 307 306 306 303 298
232 216 229 248 233 236 253 254 253 211 213 223 197 216 219 223 230 239 245 242 255 261 244 213 197 207 240 280 323 331 344 354 0 4 352 338 327 324 324 325 320 316 315 313 315 312 305 302 296
215 216 209 203 197 241 249 252 232 217 209 222 214 220 234 216 227 231 236 239 251 258 269 248 239 248 253 265 297 315 334 343 350 356 357 346 336 327 327 325 319 317 315 316 321 316 311 310 307
212 217 216 241 247 263 284 205 248 212 216 195 206 216 207 212 211 223 237 244 248 254 271 272 256 265 267 268 279 296 320 332 340 348 350 350 339 330 327 327 326 323 317 316 314 310 305 303 301
225 208 217 248 229 285 265 215 184 174 169 190 202 213 209 203 207 216 226 237 250 258 260 268 266 264 271 267 268 279 294 316 330 337 340 342 340 332 328 327 326 320 316 310 309 307 304 301 301
216 199 213 231 241 209 266 90 105 176 168 185 200 207 199 207 210 217 239 238 238 252 254 264 264 266 267 271 264 271 283 297 319 326 330 337 337 332 323 321 322 319 315 310 307 308 305 300 299
217 214 219 232 240 281 277 254 209 215 189 174 175 193 197 208 220 243 250 240 253 252 242 257 267 270 273 273 261 267 277 291 306 320 329 337 337 334 332 331 328 323 320 317 315 312 306 309 303